Helicity
114 6 24 59 80 99 116 122 96 46 47 77 58 64 66 58 75 30 25 41 60 109 103 96 116 178 233 74 35 27 89 49 28 -76 -23 12 -0 44 10 38 78 86 21 -8
-3 22 42 79 94 111 130 119 75 74 65 83 61 44 52 68 44 86 70 71 95 84 104 132 117 96 38 24 27 34 36 59 -15 -69 -21 59 82 55 -51 -45 -25 52 94 64
-27 29 70 76 97 102 141 137 118 100 63 65 38 45 43 39 41 53 52 45 55 123 101 108 72 42 32 30 20 52 73 76 36 16 20 48 1 105 97 -22 23 34 18 5
-0 26 68 87 93 124 143 138 100 68 60 61 51 39 36 32 33 37 31 90 155 108 105 44 42 -33 -5 30 -6 49 45 -8 3 -1 -1 12 23 59 9 -3 13 67 46 -12
5 48 54 85 110 148 107 99 118 97 73 62 66 44 -7 12 89 53 84 97 81 74 57 28 -0 10 51 32 11 -12 49 46 21 8 46 39 6 15 39 62 60 -30 -26 -51
41 40 74 93 112 142 133 133 167 95 65 35 34 6 46 98 64 24 45 73 69 25 -18 -7 45 95 207 141 42 -37 73 51 8 15 2 13 -2 43 39 103 21 34 -8 63
34 48 85 98 119 132 183 243 156 79 42 12 22 76 88 67 45 51 40 3 -6 -10 -21 38 90 -10 31 1 7 25 28 8 -10 20 -5 -4 30 56 48 101 139 181 87 124
32 60 78 111 120 170 189 249 138 108 45 43 55 69 53 28 7 38 8 -30 -2 -1 33 10 2 8 7 -24 38 -29 -39 -14 -1 7 20 49 -20 67 45 98 44 126 54 92
51 69 98 117 130 163 178 163 115 129 89 67 27 53 24 27 44 16 16 9 -10 20 29 6 -10 -1 -2 1 -3 27 4 29 -21 1 7 6 26 182 24 8 33 65 33 52
57 80 113 123 117 159 142 153 135 117 82 64 85 52 33 45 64 66 54 -35 -19 2 -3 8 6 4 -15 -1 20 81 56 21 49 18 -4 23 50 150 112 24 -2 73 60 36
74 89 117 118 117 131 156 143 136 118 85 66 77 61 81 66 71 89 30 9 -16 2 -17 2 5 12 -21 -32 -6 -11 -18 35 67 18 -11 8 -18 -30 -0 6 -7 27 52 20
93 88 109 126 110 121 137 113 111 132 89 25 27 23 60 112 60 80 5 26 3 -2 -22 -1 5 8 1 -14 -23 -1 -16 -0 6 9 -10 -26 -8 -73 -21 24 50 21 10 -2
113 104 105 109 110 89 91 85 92 72 49 28 17 11 36 16 7 -14 85 80 63 35 27 5 -9 2 -3 -6 -4 -24 29 34 22 9 -40 -38 -57 -46 -19 20 13 13 -9 -8
125 107 89 100 95 83 95 109 85 69 53 59 25 30 41 9 4 2 20 44 56 62 49 17 2 8 -0 -13 11 -24 63 39 17 4 -7 -16 -53 -29 -1 21 -2 -15 -15 2
82 83 83 78 89 83 82 73 70 73 51 40 11 13 12 76 36 23 42 43 59 68 53 45 13 8 19 7 7 24 26 43 -32 -17 -15 7 1 3 -20 -14 -10 1 13 14
33 53 59 65 87 88 88 78 43 42 37 36 43 14 11 54 73 52 43 27 49 75 72 23 15 9 9 8 -1 46 43 41 45 17 35 -25 30 -22 -13 -12 -0 29 36 34
4 38 57 59 73 119 102 79 50 37 33 38 37 20 2 46 39 22 44 29 41 59 44 27 40 13 2 5 18 71 97 73 51 10 -17 10 17 7 31 31 38 60 46 37
5 26 51 94 98 100 116 60 12 9 44 33 43 22 6 27 26 26 22 57 57 37 34 49 34 -1 3 -0 60 132 92 70 97 21 94 68 67 60 54 47 37 41 36 22
33 68 118 170 166 130 86 25 3 34 57 47 46 42 39 26 24 49 138 47 49 34 25 13 1 -12 -4 27 114 139 95 75 33 82 96 83 70 59 56 44 36 29 27 26
96 168 180 155 106 47 40 73 58 64 62 46 36 29 46 41 36 35 55 39 15 5 26 7 3 17 119 139 118 137 119 95 76 73 71 58 54 46 45 52 49 42 34 41
183 162 162 106 6 85 94 83 69 59 38 31 35 35 41 30 70 56 23 22 13 4 14 22 2 26 71 63 104 135 115 100 105 107 101 86 75 63 55 54 55 44 46 53
119 115 93 100 111 109 91 71 75 51 44 43 53 22 43 52 79 78 69 46 49 -1 39 -9 11 29 45 60 137 138 138 113 99 93 85 78 73 61 51 55 43 45 55 57
107 127 144 116 106 99 95 78 79 68 45 59 64 62 62 68 71 101 94 101 64 51 48 33 39 55 73 101 108 107 91 89 96 97 82 76 62 58 55 46 29 25 41 57
194 185 163 111 88 92 75 42 45 21 60 99 133 114 79 71 81 89 93 70 81 77 51 90 88 98 108 128 139 129 73 53 62 90 72 63 41 27 23 22 35 55 57 73
218 168 143 118 131 89 49 45 73 79 67 134 101 63 59 59 89 60 57 58 37 40 74 84 118 143 148 138 132 106 86 68 58 61 38 24 17 63 75 62 44 37 51 84
154 165 174 142 125 114 107 74 82 115 71 85 84 71 46 50 58 79 29 32 34 62 89 108 155 175 159 124 98 83 74 66 65 47 45 57 63 49 71 67 58 52 52 71
84 102 95 83 56 65 84 90 71 95 63 62 78 56 34 70 59 46 86 80 76 116 139 167 147 128 104 96 73 57 79 89 76 54 52 53 36 64 109 112 68 53 21 25
Wind_Speed
17 19 20 17 22 23 22 22 14 16 15 15 21 22 27 30 32 32 35 39 44 51 57 56 60 65 63 66 65 68 56 58 71 64 64 60 51 43 42 50 51 52 54 54
18 20 21 21 20 23 20 19 12 14 17 20 21 22 28 31 33 36 39 43 43 47 54 61 57 58 54 54 59 54 52 46 64 50 41 44 45 52 50 51 44 46 53 59
14 16 19 22 22 22 21 17 12 16 19 24 19 23 27 29 34 35 35 37 40 49 57 53 55 58 51 56 56 41 48 40 44 44 55 56 57 60 67 59 55 54 54 63
17 18 23 26 25 22 20 18 13 14 18 20 18 22 26 30 33 34 33 37 48 52 53 57 52 59 57 51 45 38 40 45 55 52 58 61 63 65 59 62 64 59 61 58
16 15 17 20 28 31 21 13 11 16 10 11 17 25 26 30 31 36 38 40 45 46 48 50 60 53 50 41 39 45 34 42 48 58 54 59 62 62 57 54 63 65 66 59
13 13 21 25 31 32 21 24 22 14 11 13 18 23 27 30 33 32 34 35 38 44 50 46 34 22 29 29 37 21 18 39 53 49 53 59 48 43 50 53 40 47 49 43
14 17 29 33 34 31 29 26 24 13 10 14 19 23 25 27 28 33 33 34 41 46 43 32 25 28 37 47 35 35 43 40 13 12 36 36 34 45 41 43 44 42 39 43
16 24 28 33 34 30 31 31 22 16 10 14 21 22 26 27 27 31 32 38 40 37 38 37 36 42 37 37 40 42 35 17 14 23 23 30 39 30 29 44 48 51 53 57
15 26 35 35 29 27 28 22 25 19 16 24 15 21 23 27 29 31 28 37 38 35 36 34 35 37 41 41 30 33 33 32 9 24 28 30 19 32 55 52 39 48 55 59
19 30 36 30 26 23 24 22 23 21 18 24 25 25 27 29 31 29 34 35 41 42 36 32 33 34 33 41 36 28 28 26 27 25 13 32 58 61 40 34 41 57 48 52
28 33 32 29 25 22 21 17 20 20 19 24 27 28 30 32 31 31 31 31 37 38 35 32 31 34 32 33 27 26 39 35 32 38 36 32 59 40 26 17 34 40 38 33
32 35 35 27 24 21 23 21 23 25 21 26 31 31 28 29 31 27 32 31 30 31 30 31 34 34 34 31 31 20 16 19 24 15 39 49 47 28 13 17 12 26 28 28
28 33 33 28 22 21 20 18 21 23 26 30 29 26 22 21 19 23 26 31 32 31 29 29 37 38 37 34 29 28 22 24 15 14 16 36 31 42 26 18 21 27 33 40
30 31 33 27 25 22 21 22 23 24 26 26 31 28 31 25 22 18 17 19 25 26 30 39 41 42 40 41 33 39 28 31 16 14 26 19 29 24 27 26 31 36 44 48
43 36 33 27 25 22 24 26 27 27 26 27 32 43 18 22 24 21 18 16 19 25 26 40 45 44 43 44 35 38 37 32 19 26 31 21 20 22 27 38 43 44 51 55
42 37 34 30 23 18 27 26 28 28 30 30 31 37 25 28 21 20 19 15 16 20 28 41 43 47 44 40 41 33 32 28 31 33 37 32 24 43 46 46 49 52 56 59
36 34 33 29 21 22 28 27 27 27 25 28 34 35 30 24 23 22 19 15 20 21 30 40 46 53 45 44 42 27 35 31 26 31 43 38 45 43 46 48 52 53 57 58
31 29 28 22 15 22 28 26 25 23 27 30 31 31 29 23 25 27 27 26 26 25 32 39 46 43 39 45 26 28 39 41 41 42 39 41 43 46 50 52 54 55 57 58
25 21 15 23 30 30 27 19 22 27 29 29 27 28 32 23 25 28 25 25 26 23 20 36 37 42 44 33 24 35 42 40 42 40 42 43 45 49 52 54 56 56 59 59
18 23 27 31 34 11 15 30 31 33 32 27 28 21 25 25 26 26 26 24 22 23 18 30 40 38 25 27 31 34 39 40 42 41 44 46 47 51 54 56 56 57 60 60
31 32 30 23 6 26 30 31 30 29 32 25 23 11 16 25 25 23 20 22 22 24 30 30 40 37 30 26 29 34 37 37 40 40 42 46 49 53 56 58 59 62 64 64
28 18 15 19 29 30 31 29 30 28 31 20 26 19 11 20 28 23 26 22 25 19 28 42 37 33 24 25 28 33 37 38 39 41 44 47 50 54 56 59 62 64 63 64
22 26 28 28 31 32 31 27 30 31 28 21 19 24 23 24 25 27 29 27 40 42 30 40 39 24 26 26 27 30 34 37 40 43 46 49 54 56 56 59 58 62 62 65
30 30 31 34 30 36 33 34 27 26 26 17 16 25 26 24 23 26 28 37 44 40 38 37 24 21 25 28 31 29 36 40 44 45 49 52 57 59 58 54 55 63 61 65
32 31 37 37 37 35 36 39 37 25 20 15 18 24 24 23 26 28 35 42 40 36 33 28 20 20 23 29 33 36 40 43 45 46 50 51 58 60 60 56 50 59 57 62
32 35 37 38 37 35 35 32 28 31 22 11 19 21 25 24 29 30 41 44 41 32 29 21 21 24 28 32 36 40 42 45 46 49 53 53 54 60 60 57 49 62 55 58
34 32 28 31 31 31 29 31 30 36 25 19 21 22 21 29 34 40 41 44 37 22 26 28 25 28 34 37 35 38 44 45 48 54 54 50 47 54 58 61 63 62 55 57
Wind_Direction
207 224 241 246 251 254 254 267 280 291 302 308 313 315 325 334 335 345 343 342 337 335 335 334 333 332 337 343 343 336 343 333 324 324 316 305 301 303 305 294 292 282 275 282
211 226 235 243 248 248 253 258 303 292 302 297 307 322 330 334 337 341 341 338 346 345 341 336 340 340 347 351 349 346 346 340 332 335 334 310 310 284 268 288 304 292 276 269
204 224 232 240 239 246 257 267 280 287 301 311 315 319 327 335 349 350 355 351 352 348 344 347 342 345 351 351 348 355 347 344 335 318 298 272 296 277 270 272 283 287 282 271
213 219 226 233 234 245 259 275 284 289 283 302 332 336 338 339 346 359 3 358 355 352 347 347 351 348 348 353 349 0 360 349 307 281 271 274 284 283 285 279 274 275 265 271
187 196 225 231 231 237 258 275 291 299 335 352 345 341 340 345 359 356 355 359 360 1 357 355 345 352 357 1 8 288 16 344 296 289 279 284 297 291 295 287 276 266 260 270
180 196 223 227 228 237 261 265 270 297 330 348 351 348 354 355 0 8 10 13 7 1 0 358 358 7 235 229 246 242 24 348 314 318 300 295 316 316 296 295 303 284 274 288
175 211 221 218 222 233 240 253 269 323 339 352 349 6 7 7 18 14 18 17 11 6 9 11 29 280 350 10 39 49 324 0 117 0 266 325 336 319 304 306 330 313 304 303
183 217 219 215 221 235 236 244 269 320 349 7 7 18 13 24 29 26 24 21 23 29 25 30 32 24 14 4 31 335 295 179 186 163 234 217 305 279 259 298 303 320 299 295
195 217 214 215 227 240 242 265 272 292 339 337 31 23 26 16 21 16 31 32 39 37 32 39 32 25 11 342 281 294 304 5 223 170 207 298 259 282 287 284 307 310 313 313
202 215 214 221 229 246 249 263 286 283 359 333 348 11 16 19 23 35 30 30 27 34 36 39 32 24 293 344 306 275 290 284 288 291 221 13 330 316 304 317 274 299 294 317
211 215 218 222 230 251 254 277 307 291 337 336 335 0 12 17 21 27 39 37 31 34 38 36 24 329 276 290 255 272 316 302 289 306 311 282 328 315 323 220 269 287 289 300
213 215 217 223 232 249 261 269 287 287 314 327 325 343 14 35 40 46 45 46 49 57 53 25 283 279 273 267 275 221 197 259 264 241 331 334 345 284 252 252 207 277 296 300
209 214 217 224 237 251 268 286 289 303 312 319 349 17 80 90 72 69 51 47 43 46 354 330 275 274 275 263 241 252 74 90 135 190 209 293 297 328 290 268 278 295 309 321
213 217 221 228 239 247 267 274 292 310 318 341 352 39 35 93 93 94 82 68 42 35 352 297 280 277 279 262 241 262 40 33 96 138 263 249 288 280 284 284 302 310 328 334
220 225 224 231 241 253 266 280 287 305 324 339 337 299 85 71 75 83 82 77 35 8 0 295 282 278 283 281 312 328 3 31 263 244 275 225 218 257 285 312 325 327 339 343
220 222 228 234 243 259 261 281 293 313 318 335 346 343 47 58 91 79 78 79 40 17 346 293 280 270 279 281 296 5 26 49 45 34 25 318 240 326 336 333 340 357 356 356
216 224 228 233 244 259 268 284 297 325 330 340 342 348 28 69 73 62 60 80 32 21 335 282 269 262 278 271 298 18 5 30 58 13 318 350 3 335 332 352 352 357 360 2
216 222 224 232 245 264 272 301 318 335 326 339 350 358 16 67 48 47 53 49 39 28 308 277 262 271 275 258 342 350 346 341 340 312 348 341 344 345 346 357 358 358 358 4
212 209 217 240 253 259 277 319 329 323 325 338 354 359 7 63 40 30 31 48 45 38 19 280 267 261 257 291 334 323 343 346 316 338 342 342 345 347 349 352 353 353 355 357
180 221 246 250 250 283 302 295 303 307 315 335 337 13 8 29 31 29 37 51 52 33 42 299 264 275 307 317 333 345 345 346 341 342 340 343 345 345 347 351 353 352 350 351
230 238 253 256 214 275 284 294 304 313 319 341 353 4 2 12 13 20 40 40 41 16 334 287 266 276 294 319 336 347 355 5 358 4 4 359 351 347 348 345 344 342 341 343
230 245 247 253 266 278 285 292 302 311 321 352 348 9 38 0 1 8 357 355 351 14 336 266 280 299 322 324 341 347 352 0 7 9 3 2 355 348 345 344 342 341 345 343
225 253 255 263 269 275 283 290 299 307 320 337 353 351 357 359 353 353 343 334 292 294 325 294 298 328 329 333 342 350 357 357 1 6 1 354 347 347 349 348 350 348 347 345
248 251 251 262 276 277 282 287 302 313 324 346 350 340 348 356 356 347 345 303 284 295 304 311 334 337 334 336 338 348 345 346 346 358 351 349 347 347 348 352 353 349 350 348
251 258 260 263 273 285 292 291 298 311 334 356 346 350 354 358 347 337 317 287 289 296 310 328 352 354 347 332 332 334 337 340 344 351 348 350 347 347 347 352 356 354 355 352
260 265 269 280 279 285 298 303 309 316 325 2 342 342 344 338 331 328 289 278 282 302 322 343 352 353 347 338 334 333 337 338 342 345 344 345 349 350 352 354 356 347 350 353
261 265 280 291 290 292 301 307 309 307 315 313 327 324 331 324 321 300 291 281 292 322 330 332 344 348 340 335 338 340 340 343 343 342 345 349 354 352 353 353 351 349 353 352